CZ-4C DEB, 43418

Orbit data source: Space-Track

CZ-4C DEB, 43418 is space debris in LEO originally from a launch on Wed, 10 Dec 2014 UTC launched from the Jiuquan Satellite Launch Center, China (JSC). Debris objects in space refer to the collection of defunct objects orbiting the Earth. Examples of debris include non-operational satellites, rocket bodies, and fragments generated from explosions, collisions, or faulty payload assembly.

Loading next visibility...
Identifier
43418, 2014-080G
Orbit
LEO
Country
Flag of CNCN / PRC
Related business
Manufacturer
SAST
Mission
Spacecraft
Bus & Motor
Unknown
Mass
Unknown
Launch date (UTC)
2014-12-10 (12 years ago)
Launch vehicle
Unknown
Launch site
Jiuquan Satellite Launch Center, China (JSC)
Object type
Payload
Rocket body
Debris
Shape & HBR
Unknown shape, 0.1 m
Radar Cross Section
Small (<0.1 m²)

Expand to show TLE details & history
Last TLE update: 5 days ago

TLE from 5 days ago
0 CZ-4C DEB
1 43418U 14080G   26168.11801185 -.00000038  00000-0  57678-4 0  9990
2 43418  63.3913 322.6754 0380904   9.1826 351.5912 13.45310659545014
Epoch: 2026-06-17T02:49Z
TLE epoch observation values (Epoch: 2026-06-17T02:49:56.223Z)
Latitude
-0.00006°
Longitude
14.81082°
Altitude
810.159 km
Speed
7.588 km/s
True Right ascension
21h 30m 42s
True Declination
0° 00' 00"
Sunlit
Object was in full shadow at epoch
Visualization orbit readout
Latitude
Unknown
Longitude
Unknown
Altitude
Unknown
Speed
Unknown
Apparent Right ascension
Unknown
Apparent Declination
Unknown
Sunlit
N/A
Visualization observer readout
Local Sidereal Time
23:20:27
Azimuth
Unknown
Elevation
Unknown
Doppler factor
Unknown
Orbital elements
Apogee altitude
1,372.793 km
Perigee altitude
803.987 km
Semi-major axis
7,466.527 km
Eccentricity
0.03809
Inclination
63.3913°
RAAN
322.6754°
Arg. of periapsis
9.1826°
True anomaly
350.92144°
Mean anomaly
351.5912°
Eccentric anomaly
351.25956°
Mean motion
3.36407 °/min
Orbital period
107.01 mins
BSTAR
0.000057678
Loading maneuver chart data...
Computing Atmospheric mass density...
Loading historical data...
Loading historical data...
Loading historical data...
Loading historical data...
Loading historical data...
Loading historical data...
Loading historical data...

Documentation

Showing up to 5 results
|